Tillbaka till svenska Fidonet
English   Information   Debug  
FILM   0/18
FNEWS_PUBLISH   4912
FN_SYSOP   42201
FN_SYSOP_OLD1   71952
FTP_FIDO   0/2
FTSC_PUBLIC   0/13972
FUNNY   0/4886
GENEALOGY.EUR   0/71
GET_INFO   105
GOLDED   0/408
HAM   180/16648
HOLYSMOKE   0/6791
HOT_SITES   0/1
HTMLEDIT   0/71
HUB203   466
HUB_100   264
HUB_400   39
HUMOR   0/29
IC   0/2851
INTERNET   0/424
INTERUSER   0/3
IP_CONNECT   719
JAMNNTPD   0/233
JAMTLAND   0/47
KATTY_KORNER   0/41
LAN   0/16
LINUX-USER   0/19
LINUXHELP   0/1155
LINUX   0/22300
LINUX_BBS   0/957
mail   18.68
mail_fore_ok   249
MENSA   0/341
MODERATOR   0/102
MONTE   0/992
MOSCOW_OKLAHOMA   0/1245
MUFFIN   0/783
MUSIC   0/321
N203_STAT   938
N203_SYSCHAT   313
NET203   321
NET204   69
NET_DEV   0/10
NORD.ADMIN   0/101
NORD.CHAT   0/2572
NORD.FIDONET   189
NORD.HARDWARE   0/28
NORD.KULTUR   0/114
NORD.PROG   0/32
NORD.SOFTWARE   0/88
NORD.TEKNIK   0/58
NORD   0/453
OCCULT_CHAT   0/93
OS2BBS   0/787
OS2DOSBBS   0/580
OS2HW   0/42
OS2INET   0/37
OS2LAN   0/134
OS2PROG   0/36
OS2REXX   0/113
OS2USER-L   207
OS2   0/4830
OSDEBATE   0/18996
PASCAL   0/490
PERL   0/457
PHP   0/45
POINTS   0/405
POLITICS   0/29554
POL_INC   0/14731
PSION   103
R20_ADMIN   1133
R20_AMATORRADIO   0/2
R20_BEST_OF_FIDONET   16
R20_CHAT   0/896
R20_DEPP   0/3
R20_DEV   400
R20_ECHO2   1821
R20_ECHOPRES   0/35
R20_ESTAT   0/719
R20_FIDONETPROG...
...RAM.MYPOINT
  0/2
R20_FIDONETPROGRAM   0/22
R20_FIDONET   0/248
R20_FILEFIND   0/24
R20_FILEFOUND   0/22
R20_HIFI   0/3
R20_INFO2   3713
R20_INTERNET   0/12940
R20_INTRESSE   0/60
R20_INTR_KOM   0/99
R20_KANDIDAT.CHAT   42
R20_KANDIDAT   28
R20_KOM_DEV   112
R20_KONTROLL   0/13360
R20_KORSET   0/18
R20_LOKALTRAFIK   0/24
R20_MODERATOR   0/1852
R20_NC   76
R20_NET200   245
R20_NETWORK.OTH...
...ERNETS
  0/13
R20_OPERATIVSYS...
...TEM.LINUX
  0/44
R20_PROGRAMVAROR   0/1
R20_REC2NEC   534
R20_SFOSM   0/341
R20_SF   0/108
R20_SPRAK.ENGLISH   0/1
R20_SQUISH   107
R20_TEST   2
R20_WORST_OF_FIDONET   20
RAR   0/9
RA_MULTI   106
RA_UTIL   0/162
REGCON.EUR   0/2068
REGCON   0/13
SCIENCE   0/1206
SF   0/239
SHAREWARE_SUPPORT   0/5146
SHAREWRE   0/14
SIMPSONS   0/169
STATS_OLD1   0/2539.065
STATS_OLD2   0/2530
STATS_OLD3   0/2395.095
STATS_OLD4   0/1692.25
SURVIVOR   0/495
SYSOPS_CORNER   0/3
SYSOP   0/84
TAGLINES   0/112
TEAMOS2   0/4530
TECH   0/2617
TEST.444   0/105
TRAPDOOR   0/19
TREK   0/755
TUB   0/290
UFO   0/40
UNIX   0/1316
USA_EURLINK   0/102
USR_MODEMS   0/1
VATICAN   0/2740
VIETNAM_VETS   0/14
VIRUS   0/378
VIRUS_INFO   0/201
VISUAL_BASIC   0/473
WHITEHOUSE   0/5187
WIN2000   0/101
WIN32   0/30
WIN95   0/4291
WIN95_OLD1   0/70272
WINDOWS   0/1517
WWB_SYSOP   0/419
WWB_TECH   0/810
ZCC-PUBLIC   0/1
ZEC   4

 
4DOS   0/134
ABORTION   0/7
ALASKA_CHAT   0/506
ALLFIX_FILE   0/1313
ALLFIX_FILE_OLD1   0/7997
ALT_DOS   0/152
AMATEUR_RADIO   0/1039
AMIGASALE   0/14
AMIGA   0/331
AMIGA_INT   0/1
AMIGA_PROG   0/20
AMIGA_SYSOP   0/26
ANIME   0/15
ARGUS   0/924
ASCII_ART   0/340
ASIAN_LINK   0/651
ASTRONOMY   0/417
AUDIO   0/92
AUTOMOBILE_RACING   0/105
BABYLON5   0/17862
BAG   135
BATPOWER   0/361
BBBS.ENGLISH   0/382
BBSLAW   0/109
BBS_ADS   0/5290
BBS_INTERNET   0/507
BIBLE   0/3563
BINKD   0/1119
BINKLEY   0/215
BLUEWAVE   0/2173
CABLE_MODEMS   0/25
CBM   0/46
CDRECORD   0/66
CDROM   0/20
CLASSIC_COMPUTER   0/378
COMICS   0/15
CONSPRCY   0/899
COOKING   41333
COOKING_OLD1   0/24719
COOKING_OLD2   0/40862
COOKING_OLD3   0/37489
COOKING_OLD4   0/35496
COOKING_OLD5   9370
C_ECHO   0/189
C_PLUSPLUS   0/31
DIRTY_DOZEN   0/201
DOORGAMES   0/2262
DOS_INTERNET   0/196
duplikat   6102
ECHOLIST   0/18295
EC_SUPPORT   0/318
ELECTRONICS   0/359
ELEKTRONIK.GER   1534
ENET.LINGUISTIC   0/13
ENET.POLITICS   0/4
ENET.SOFT   0/11701
ENET.SYSOP   34289
ENET.TALKS   0/32
ENGLISH_TUTOR   0/2000
EVOLUTION   0/1335
FDECHO   0/217
FDN_ANNOUNCE   0/7068
FIDONEWS   25048
FIDONEWS_OLD1   0/49742
FIDONEWS_OLD2   3947/35949
FIDONEWS_OLD3   0/30874
FIDONEWS_OLD4   0/37224
FIDO_SYSOP   12922
FIDO_UTIL   0/180
FILEFIND   0/209
FILEGATE   0/212
Möte HAM, 16648 texter
 lista första sista föregående nästa
Text 133, 736 rader
Skriven 2004-12-11 02:13:11 av Amsat List (1:323/120.0)
Ärende: 
========
SB KEPS @ AMSAT  $ORB04345.O
Orbital Elements  04345.OSCAR

HR AMSAT ORBITAL ELEMENTS FOR OSCAR SATELLITES
FROM WA5QGD FORT WORTH,TX December 10, 2004
SEND SUBSCRIBE/UNSUBSCRIBE TO majordomo@amsat.org ONLY
BID: ORB04345.O
TO ALL RADIO AMATEURS BT

Satellite: AO-07
Catalog number: 07530
Epoch time:      04344.69150514
Element set:    0361
Inclination:      101.6589 deg
RA of node:       028.5195 deg
Eccentricity:    0.0012026
Arg of perigee:   241.7146 deg
Mean anomaly:     118.2712 deg
Mean motion:   12.53569865 rev/day
Decay rate:       -2.9e-07 rev/day^2
Epoch rev:           37590
Checksum:              293

Satellite: AO-10
Catalog number: 14129
Epoch time:      04344.90066497
Element set:     129
Inclination:       26.8668 deg
RA of node:        57.4735 deg
Eccentricity:    0.6031876
Arg of perigee:   147.5031 deg
Mean anomaly:     270.7588 deg
Mean motion:    2.05868634 rev/day
Decay rate:        7.6e-07 rev/day^2
Epoch rev:           16163
Checksum:              325

Satellite: UO-11
Catalog number: 14781
Epoch time:      04345.27436040
Element set:     657
Inclination:       98.1910 deg
RA of node:       333.1778 deg
Eccentricity:    0.0008160
Arg of perigee:   243.1925 deg
Mean anomaly:     116.8466 deg
Mean motion:   14.79100129 rev/day
Decay rate:       4.44e-06 rev/day^2
Epoch rev:           11387
Checksum:              292

Satellite: RS-10/11
Catalog number: 18129
Epoch time:      04345.53747599
Element set:     559
Inclination:       82.9266 deg
RA of node:        17.6836 deg
Eccentricity:    0.0010952
Arg of perigee:   183.7800 deg
Mean anomaly:     176.3280 deg
Mean motion:   13.72750093 rev/day
Decay rate:        2.7e-07 rev/day^2
Epoch rev:           87519
Checksum:              330

Satellite: FO-20
Catalog number: 20480
Epoch time:      04345.64562648
Element set:     764
Inclination:       99.0176 deg
RA of node:       189.7120 deg
Eccentricity:    0.0539964
Arg of perigee:   307.0750 deg
Mean anomaly:      48.2129 deg
Mean motion:   12.83343379 rev/day
Decay rate:       -7.4e-07 rev/day^2
Epoch rev:           69531
Checksum:              324

Satellite: RS-12/13
Catalog number: 21089
Epoch time:      04345.11428613
Element set:     783
Inclination:       82.9237 deg
RA of node:        51.2093 deg
Eccentricity:    0.0027604
Arg of perigee:   245.4982 deg
Mean anomaly:     114.3296 deg
Mean motion:   13.74444736 rev/day
Decay rate:        3.7e-07 rev/day^2
Epoch rev:           69452
Checksum:              307

Satellite: RS-15
Catalog number: 23439
Epoch time:      04344.69301388
Element set:    0841
Inclination:      064.8192 deg
RA of node:       054.0089 deg
Eccentricity:    0.0158394
Arg of perigee:   349.7509 deg
Mean anomaly:     010.0200 deg
Mean motion:   11.27550439 rev/day
Decay rate:       -3.9e-07 rev/day^2
Epoch rev:           41002
Checksum:              287

Satellite: FO-29
Catalog number: 24278
Epoch time:      04345.77327237
Element set:     844
Inclination:       98.5736 deg
RA of node:        54.5341 deg
Eccentricity:    0.0350174
Arg of perigee:   304.5499 deg
Mean anomaly:      52.3047 deg
Mean motion:   13.52906294 rev/day
Decay rate:        7.0e-08 rev/day^2
Epoch rev:           41071
Checksum:              312

Satellite: SO-33
Catalog number: 25509
Epoch time:      04345.42630559
Element set:     255
Inclination:       31.4339 deg
RA of node:        19.4847 deg
Eccentricity:    0.0355646
Arg of perigee:   316.1468 deg
Mean anomaly:      41.1449 deg
Mean motion:   14.27938102 rev/day
Decay rate:       2.69e-06 rev/day^2
Epoch rev:           31982
Checksum:              313

Satellite: AO-40
Catalog number: 26609
Epoch time:      04343.03021472
Element set:     467
Inclination:        9.1790 deg
RA of node:       331.2071 deg
Eccentricity:    0.7959964
Arg of perigee:   345.7402 deg
Mean anomaly:       0.7974 deg
Mean motion:    1.25586517 rev/day
Decay rate:       -3.7e-07 rev/day^2
Epoch rev:            1885
Checksum:              305

/EX
SB KEPS @ AMSAT  $ORB04345.D
Orbital Elements  04345.MICROS

HR AMSAT ORBITAL ELEMENTS FOR THE MICROSATS
FROM WA5QGD FORT WORTH,TX December 10, 2004
SEND SUBSCRIBE/UNSUBSCRIBE TO majordomo@amsat.org ONLY
BID: ORB04345.D
TO ALL RADIO AMATEURS BT

Satellite: UO-14
Catalog number: 20437
Epoch time:      04344.61932009
Element set:     658
Inclination:       98.2010 deg
RA of node:       358.9006 deg
Eccentricity:    0.0011604
Arg of perigee:    41.8899 deg
Mean anomaly:     318.3157 deg
Mean motion:   14.31387444 rev/day
Decay rate:       1.20e-06 rev/day^2
Epoch rev:           77691
Checksum:              297

Satellite: AO-16
Catalog number: 20439
Epoch time:      04344.65859110
Element set:     347
Inclination:       98.2267 deg
RA of node:        13.8698 deg
Eccentricity:    0.0011991
Arg of perigee:    48.7336 deg
Mean anomaly:     311.4875 deg
Mean motion:   14.31647047 rev/day
Decay rate:        2.5e-07 rev/day^2
Epoch rev:           77697
Checksum:              330

Satellite: WO-18
Catalog number: 20441
Epoch time:      04345.86116590
Element set:     538
Inclination:       98.2402 deg
RA of node:        19.1803 deg
Eccentricity:    0.0012534
Arg of perigee:    46.5090 deg
Mean anomaly:     313.7121 deg
Mean motion:   14.31722410 rev/day
Decay rate:        6.5e-07 rev/day^2
Epoch rev:           77720
Checksum:              262

Satellite: LO-19
Catalog number: 20442
Epoch time:      04345.13311876
Element set:     273
Inclination:       98.2489 deg
RA of node:        22.6972 deg
Eccentricity:    0.0012908
Arg of perigee:    46.4395 deg
Mean anomaly:     313.7864 deg
Mean motion:   14.31894192 rev/day
Decay rate:        5.1e-07 rev/day^2
Epoch rev:           77716
Checksum:              318

